Regional Weather Roundup
Issued by NWS

Home | Current Version | Previous Version | Graphics & Text | Print | Product List | Glossary On
Versions: 1 2 3 4 5 6 7 8 9 10 11 12 13 14 15 16 17 18 19 20 21 22 23 24 25 26 27 28 29 30 31 32 33 34 35 36 37 38 39 40 41 42 43 44 45 46 47 48 49 50
000
ASUS43 KMKX 232000
RWRWI

WISCONSIN REGIONAL WEATHER ROUNDUP
NATIONAL WEATHER SERVICE MILWAUKEE/SULLIVAN WI
300 PM CDT WED AUG 23 2017

NOTE: "FAIR" INDICATES FEW OR NO CLOUDS BELOW 12,000 FEET WITH NO
SIGNIFICANT WEATHER AND/OR OBSTRUCTIONS TO VISIBILITY.

WIZ001-002-006>008-014>016-023>028-232100-
NORTHWEST WISCONSIN

CITY           SKY/WX    TMP DP  RH WIND       PRES   REMARKS
SUPERIOR ARPT    N/A     67  50  53 NE3       30.07S
ASHLAND        MOSUNNY   67  50  54 N9        30.07F
HAYWARD        SUNNY     65  46  50 VRB6      30.07F
SIREN          PTSUNNY   68  46  46 N7        30.08S
CUMBERLAND     MOSUNNY   66  45  45 N7        30.08F
RICE LAKE      MOSUNNY   68  48  48 N7        30.09S
CHETEK         PTSUNNY   70  51  51 W7        30.07F
LADYSMITH      PTSUNNY   66  48  52 N7        30.08F
EAU CLAIRE     NOT AVBL
MENOMONIE      MOSUNNY   69  49  49 NW8       30.07F
NEW RICHMOND   MOSUNNY   71  49  46 NW13      30.09S
OSCEOLA        MOSUNNY   71  51  49 NW6       30.11S
$$

WIZ003>005-009-010-017-018-232100-
NORTH CENTRAL WISCONSIN

CITY           SKY/WX    TMP DP  RH WIND       PRES   REMARKS
MANITOWISH WTR MOSUNNY   61  47  59 N8        30.06S
ARBOR VITAE    MOSUNNY   64  47  54 N10G20    30.05F
WOODRUFF       MOSUNNY   64  47  54 N10G20    30.05F
RHINELANDER    MOSUNNY   66  49  54 NW10G18   30.05S
EAGLE RIVER    MOSUNNY   63  44  48 NW7       30.05S
LAND O LAKES   MOSUNNY   63  44  50 NW10G16   30.07S
PHILLIPS       PTSUNNY   63  47  55 NW8       30.05F
TOMAHAWK         N/A     66  46  48 NW12      30.06S
MEDFORD        PTSUNNY   65  47  52 N9        30.06S
MERRILL        NOT AVBL
$$

WIZ029-030-035-036-043>047-232100-
CENTRAL WISCONSIN

CITY           SKY/WX    TMP DP  RH WIND       PRES   REMARKS
WAUSAU         MOSUNNY   69  48  47 NW15      30.02F
MOSINEE        PTSUNNY   70  48  46 W13G18    30.05F
MARSHFIELD     MOSUNNY   66  48  52 NW12      30.05S
STEVENS POINT  MOSUNNY   67  47  48 W8G16     30.05S
WAUPACA        MOSUNNY   73  48  40 N8        30.03S
WAUTOMA        PTSUNNY   72  50  45 N12G17    30.04S
WISC RAPIDS    MOSUNNY   70  48  45 N9        30.06S
CAMP DOUGLAS   NOT AVBL
$$

WIZ011>013-019>022-031-037>040-048>050-232100-
NORTHEAST WISCONSIN

CITY           SKY/WX    TMP DP  RH WIND       PRES   REMARKS
ANTIGO         PTSUNNY   64  47  53 NW9G16    30.04S
SHAWANO        PTSUNNY   69  50  49 NW6G16    30.01S
OCONTO         SUNNY     71  49  44 NW5       30.00S
STURGEON BAY   SUNNY     66  50  56 NW7       30.01S
GREEN BAY      MOSUNNY   72  54  53 NW9       30.00F
MANITOWOC      NOT AVBL
APPLETON       PTSUNNY   72  45  37 NW12      30.01F
CLINTONVILLE   MOSUNNY   72  45  37 NW7       30.02S
OSHKOSH        MOSUNNY   72  51  47 N12       30.02S
$$

WIZ032>034-041-042-053>061-232100-
SOUTHWEST WISCONSIN

CITY           SKY/WX    TMP DP  RH WIND       PRES   REMARKS
LA CROSSE      MOSUNNY   78  52  40 NW12      30.05F
SPARTA         MOSUNNY   72  50  45 W15       30.07F
VIROQUA        PTSUNNY   71  54  54 W9G18     30.08F
BOSCOBEL       MOSUNNY   77  51  40 W9        30.06F
PRAIRIE DU CHI MOSUNNY   74  44  34 NW9G20    30.06F
PLATTEVILLE    MOSUNNY   73  53  48 N12G20    30.07F
$$

WIZ056-057-062-063-064-067-068-232100-
SOUTH CENTRAL WISCONSIN

CITY           SKY/WX    TMP DP  RH WIND       PRES   REMARKS
REEDSBURG      CLOUDY    74  51  44 W14G20    30.05F
BARABOO/DELLS  MOSUNNY   72  47  39 NW7       30.05F
LONE ROCK      NOT AVBL
MINERAL POINT  PTSUNNY   73  50  43 W7        30.07S
MADISON        PTSUNNY   72  52  49 N8        30.04F
MIDDLETON      PTSUNNY   74  52  44 NW10      30.05F
WATERTOWN      PTSUNNY   73  53  50 NW8       30.03F
MONROE         SUNNY     70  50  49 NW7       30.06S
JANESVILLE     PTSUNNY   75  52  43 NW9       30.04F
$$

WIZ051-052-058>065-066-070>072-232100-
SOUTHEAST WISCONSIN

CITY           SKY/WX    TMP DP  RH WIND       PRES   REMARKS
MILWAUKEE      MOSUNNY   72  54  53 VRB3      30.02F
WAUKESHA       PTSUNNY   70  48  46 NW12      30.04F
MILWAUKEE/TIMM CLOUDY    72  45  37 W10G17    30.03F
RACINE         MOSUNNY   72  57  59 E8        30.04F
KENOSHA        MOSUNNY   75  50  41 NW13G18   30.03F
FOND DU LAC    PTSUNNY   72  48  42 N14G21    30.02F
SHEBOYGAN      PTSUNNY   69  53  56 NW7       30.02S
WEST BEND      PTSUNNY   70  50  49 N10       30.03S
JUNEAU         MOSUNNY   68  50  52 NW7       30.05S
$$

LSZ147-162-232100-
LAKE SUPERIOR

STATION/POSITION TIME  TEMP    WIND        PRES    WAVE
                       AIR SEA DIR/SP/G            HT/PER
                 (UTC) (F)     (DEG/KT/KT) (MB)    (FT/S)
W MID LAKE BUOY  1850   59 60  290/  8/  8 1018.2R   2/ 4
DEVILS ISLAND    1900   60      CALM  /  1 1018.5F
SAXON HARBOR     1930   61      40/  9/ 13 1018.3F
$$

LMZ867-665-643>646-232100-
LAKE MICHIGAN

STATION/POSITION TIME  TEMP    WIND        PRES    WAVE
                       AIR SEA DIR/SP/G            HT/PER
                 (UTC) (F)     (DEG/KT/KT) (MB)    (FT/S)
S GREEN BAY BUOY 1930   68 71   10/ 10/ 12 1015.9S
N MID LAKE BUOY  1850   62 66  290/  8/ 12 1016.2R   2/ 4
NORTHPORT PIER   1940   66     330/ 11/ 13 1015.9R
KEWAUNEE LAKESHO 1930   71     130/  3/  5 1015.5R
SHEBOYGAN LAKESH 1900   65      80/  5/  6 1016.4R
PORT WASHINGTON  1940   74     300/  6/ 10 1017.3S
ATWATER BUOY     1809   68 68   10/  8/ 10 1017.0S
MILWAUKEE LAKESH 1930   69      20/  7/  9   N/A
S MID LAKE BUOY  1850   66 71  350/ 12/ 14 1017.1F   3/ 5
KENOSHA   LAKESH 1900   69      70/  3/ 14 1016.6
$$

TC  - TEMPERATURE IN CELSIUS
VSB - VISIBILITY IN STATUTE MILES
WCI - WIND CHILL INDEX
HX  - HEAT INDEX





USA.gov is the U.S. government's official web portal to all federal, state and local government web resources and services.